[[{"header":{"parameterUnit":"m.s-1","parameterCategory":1,"la1":30.2991,"la2":30.254,"lo1":-89.0895,"lo2":-89.0444,"dy":0.0017,"dx":0.0017,"nx":28,"ny":28,"refTime":"2024-08-30T21:00:00:Z","depth":0,"parameterNumber":2,"parameterNumberName":"U-component_of_WINDS"},"data":[0,0,0,0,0,0,0,0,0,0,0,0,0,0,0,0,0,0,0,0,0,0,0,0,0,0,0,0,0,0,0,0,0,0,0,0,0,0,0,0,0,0,0,0,0,0,0,0,0,0,0,0,0,0,0,0,0,0,-2.3318,-2.3319,0,-2.3413,-2.3414,-2.3415,-2.3415,-2.3414,-2.3412,-2.3411,-2.3507,-2.3511,-2.3515,0,0,0,0,0,0,0,0,0,0,0,0,0,-2.3137,-2.314,-2.3318,-2.3319,-2.332,-2.3413,-2.3414,-2.3415,-2.3415,-2.3414,-2.3412,-2.3411,-2.3506,-2.3511,-2.3515,0,0,0,0,0,0,0,0,0,0,0,0,0,-2.3222,-2.3141,-2.3318,-2.3331,-2.3334,-2.3412,-2.3414,-2.3415,-2.3415,-2.3413,-2.3412,-2.341,-2.3505,-2.351,-2.3516,-2.3587,0,0,-2.3533,-2.3535,0,0,0,0,0,0,0,0,-2.3217,-2.3228,-2.3328,-2.3331,-2.3333,-2.34,-2.3385,-2.3473,-2.3416,-2.3384,-2.3411,-2.3409,-2.3473,-2.3481,-2.3503,-2.3591,-2.3595,-2.3533,-2.3536,-2.3539,-2.354,0,0,0,0,0,0,0,-2.3211,-2.3224,-2.3355,-2.333,-2.3333,-2.3333,-2.3343,-2.3402,-2.3438,-2.3387,-2.3387,-2.3398,-2.3474,-2.3498,-2.3505,-2.3597,-2.3533,-2.3538,-2.3541,-2.3543,-2.3748,-2.375,0,0,0,0,0,0,-2.3202,-2.3219,-2.3352,-2.3358,-2.3269,-2.3337,-2.3349,-2.338,-2.3437,-2.3444,-2.34,-2.3398,-2.3489,-2.3499,-2.3509,-2.3595,-2.3539,-2.3544,-2.3547,-2.3746,-2.3748,-2.375,0,0,0,0,0,0,-2.3198,-2.3214,-2.3349,-2.3289,-2.3306,-2.3342,-2.3378,-2.3383,-2.3407,-2.3447,-2.3453,-2.3417,-2.3488,-2.3501,-2.3567,-2.3598,-2.3547,-2.3552,-2.3743,-2.3746,-2.3749,-2.3769,0,0,0,0,0,0,-2.3193,-2.3213,-2.324,-2.329,-2.3309,-2.3406,-2.338,-2.3386,-2.3416,-2.3415,-2.3465,-2.3471,-2.3487,-2.3559,-2.3573,-2.3605,-2.3556,-2.374,-2.3745,-2.3748,-2.3765,-2.3772,-2.3778,0,0,0,0,0,-2.3187,-2.3242,-2.3242,-2.3258,-2.3345,-2.3408,-2.3419,-2.3436,-2.3419,-2.3447,-2.3473,-2.347,-2.3593,-2.3566,-2.3581,-2.3616,-2.3739,-2.3743,-2.3748,-2.3763,-2.3771,-2.3778,0,0,0,0,0,0,-2.3196,-2.3249,-2.3249,-2.3322,-2.336,-2.3408,-2.3443,-2.3445,-2.3489,-2.3485,-2.3505,-2.3516,-2.3582,-2.3606,-2.3575,-2.3687,-2.3664,-2.3672,-2.3669,-2.3677,-2.3684,-2.3676,-2.3561,0,0,0,0,0,-2.3206,-2.3253,-2.3297,-2.3357,-2.3377,-2.3407,-2.3435,-2.3445,-2.3485,-2.3502,-2.3532,-2.3571,-2.3619,-2.365,-2.3696,-2.3769,-2.378,-2.38,-2.3807,-2.3812,-2.3818,-2.3858,-2.3867,-2.3766,-2.3766,-2.3766,0,0,-2.3228,-2.3263,-2.3291,-2.336,-2.3391,-2.3439,-2.342,-2.3472,-2.3508,-2.3509,-2.3574,-2.3598,-2.3643,-2.3713,-2.3745,-2.3734,-2.3849,-2.3818,-2.3821,-2.3825,-2.3864,-2.3873,-2.3882,-2.3769,-2.3768,-2.3768,0,0,-2.3292,-2.3324,-2.3377,-2.3408,-2.3456,-2.3475,-2.3488,-2.3535,-2.3551,-2.3616,-2.3618,-2.3661,-2.3743,-2.3774,-2.3801,-2.3878,-2.3876,-2.3892,-2.3924,-2.3963,-2.3971,-2.3978,-2.4004,-2.4014,-2.3899,-2.3899,-2.3899,0,-2.3314,-2.3386,-2.3404,-2.3456,-2.3486,-2.349,-2.3544,-2.3573,-2.3633,-2.3653,-2.364,-2.3742,-2.3773,-2.385,-2.3869,-2.3891,-2.3905,-2.3886,-2.3968,-2.3976,-2.3983,-2.4008,-2.4018,-2.39,-2.39,-2.39,-2.39,0,-2.341,-2.346,-2.3497,-2.3555,-2.3589,-2.3641,-2.3667,-2.3699,-2.3706,-2.3727,-2.3793,-2.383,-2.3883,-2.3903,-2.391,-2.3981,-2.3973,-2.3964,-2.394,-2.3993,-2.4018,-2.4028,-2.3902,-2.3902,-2.3901,-2.3901,0,0,-2.3482,-2.3548,-2.3562,-2.3588,-2.364,-2.3679,-2.3731,-2.3784,-2.381,-2.3852,-2.3896,-2.3965,-2.3957,-2.3987,-2.3998,-2.4033,-2.409,-2.4019,-2.4021,-2.403,-2.4169,-2.4175,-2.4186,-2.409,-2.4092,-2.4093,-2.4165,0,-2.3551,-2.3645,-2.3662,-2.3743,-2.379,-2.3794,-2.384,-2.3877,-2.3898,-2.394,-2.3963,-2.4011,-2.3997,-2.4016,-2.405,-2.4075,-2.4118,-2.4071,-2.413,-2.4132,-2.4118,-2.4198,-2.4205,-2.4271,-2.4175,-2.4176,-2.4177,0,-2.3645,-2.3688,-2.3773,-2.3819,-2.3839,-2.388,-2.3928,-2.3969,-2.4011,-2.4023,-2.4057,-2.4065,-2.4119,-2.4094,-2.4169,-2.4136,-2.4162,-2.4178,-2.4181,-2.4187,-2.4157,-2.4205,-2.4292,-2.4302,-2.4193,-2.4191,-2.419,0,-2.3688,-2.3767,-2.3829,-2.3851,-2.3905,-2.3934,-2.3958,-2.3998,-2.4028,-2.4071,-2.409,-2.4139,-2.4165,-2.4203,-2.4223,-2.4203,-2.4296,-2.4272,-2.4308,-2.4307,-2.4327,-2.4325,-2.4418,-2.4345,-2.4344,-2.4344,-2.4344,0,-2.3763,-2.3815,-2.3848,-2.3886,-2.3944,-2.3964,-2.4021,-2.4045,-2.408,-2.4122,-2.413,-2.4169,-2.4194,-2.4237,-2.4253,-2.4312,-2.4324,-2.4336,-2.4339,-2.4335,-2.4333,-2.4351,-2.4346,-2.4347,-2.4346,-2.4346,-2.4345,0,-2.382,-2.3845,-2.3912,-2.3959,-2.3971,-2.4012,-2.4052,-2.4088,-2.4109,-2.4162,-2.4176,-2.4209,-2.426,-2.4284,-2.4347,-2.4358,-2.4424,-2.4425,-2.441,-2.4411,-2.4445,-2.4441,-2.4552,-2.4567,-2.4485,-2.4485,-2.4486,0,-2.3866,-2.3906,-2.3957,-2.3986,-2.401,-2.4057,-2.4087,-2.4108,-2.414,-2.419,-2.422,-2.4271,-2.4313,-2.4394,-2.4423,-2.4471,-2.4473,-2.4509,-2.448,-2.4474,-2.4473,-2.447,-2.4473,-2.4513,-2.4514,-2.4515,-2.4515,0,-2.3945,-2.3955,-2.3999,-2.4047,-2.4083,-2.4122,-2.4161,-2.4184,-2.4211,-2.4246,-2.4297,-2.433,-2.4394,-2.4444,-2.4494,-2.4519,-2.4522,-2.4524,-2.4535,-2.453,-2.4519,-2.4525,-2.4423,-2.4521,-2.4521,-2.452,-2.452,-2.452,-2.3998,-2.4033,-2.4074,-2.4123,-2.4154,-2.4189,-2.4225,-2.4251,-2.4294,-2.4348,-2.4358,-2.4413,-2.4453,-2.4521,-2.4547,-2.459,-2.4582,-2.4597,-2.4601,-2.4605,-2.4606,-2.4513,-2.4599,-2.4599,-2.4599,-2.4599,-2.4599,0,-2.4076,-2.4103,-2.4147,-2.42,-2.4238,-2.4237,-2.4279,-2.4311,-2.4359,-2.4397,-2.4438,-2.4497,-2.4546,-2.4579,-2.4628,-2.4657,-2.4659,-2.4669,-2.4667,-2.4672,-2.4611,-2.4596,-2.4666,-2.4666,-2.4666,-2.4666,-2.4666,-2.4666,-2.4122,-2.4181,-2.4196,-2.4271,-2.4297,-2.4351,-2.4375,-2.4408,-2.4437,-2.4503,-2.4544,-2.4565,-2.4601,-2.4653,-2.4697,-2.4706,-2.4723,-2.4733,-2.4742,-2.4684,-2.4676,-2.467,-2.4656,-2.4737,-2.4737,-2.4799,-2.48,-2.48]},{"header":{"parameterUnit":"m.s-1","parameterCategory":1,"la1":30.2991,"la2":30.254,"lo1":-89.0895,"lo2":-89.0444,"dy":0.0017,"dx":0.0017,"nx":28,"ny":28,"refTime":"2024-08-30T21:00:00:Z","depth":0,"parameterNumber":3,"parameterNumberName":"V-component_of_WINDS"},"data":[0,0,0,0,0,0,0,0,0,0,0,0,0,0,0,0,0,0,0,0,0,0,0,0,0,0,0,0,0,0,0,0,0,0,0,0,0,0,0,0,0,0,0,0,0,0,0,0,0,0,0,0,0,0,0,0,0,0,1.6888,1.6888,0,1.6901,1.6901,1.6901,1.6854,1.6852,1.6851,1.685,1.686,1.6862,1.6864,0,0,0,0,0,0,0,0,0,0,0,0,0,1.6822,1.6823,1.6888,1.6888,1.6888,1.6901,1.6901,1.6901,1.6854,1.6852,1.685,1.6849,1.686,1.6862,1.6864,0,0,0,0,0,0,0,0,0,0,0,0,0,1.6844,1.6824,1.6888,1.6867,1.6865,1.6901,1.6901,1.6901,1.6854,1.6852,1.685,1.6848,1.6859,1.6862,1.6864,1.6921,0,0,1.6871,1.6872,0,0,0,0,0,0,0,0,1.6843,1.6846,1.687,1.6868,1.6866,1.6873,1.6881,1.6908,1.6855,1.6858,1.6849,1.6847,1.6866,1.6868,1.6875,1.6921,1.6922,1.6871,1.6873,1.6874,1.6875,0,0,0,0,0,0,0,1.6841,1.6846,1.6893,1.687,1.6868,1.6856,1.6856,1.6886,1.6874,1.6858,1.6854,1.6857,1.6865,1.6873,1.6875,1.6922,1.6871,1.6873,1.6875,1.6876,1.7015,1.7017,0,0,0,0,0,0,1.6843,1.6845,1.6893,1.6893,1.6849,1.6858,1.6859,1.6873,1.6873,1.6871,1.6858,1.6854,1.687,1.6872,1.6875,1.6941,1.6874,1.6876,1.6878,1.7012,1.7015,1.7017,0,0,0,0,0,0,1.6842,1.6848,1.6892,1.6868,1.6873,1.6862,1.6878,1.6875,1.6882,1.6874,1.6871,1.6869,1.6868,1.6872,1.691,1.694,1.6877,1.6879,1.701,1.7013,1.7016,1.7073,0,0,0,0,0,0,1.684,1.6847,1.6869,1.6869,1.6874,1.6927,1.688,1.6876,1.6887,1.6882,1.6883,1.6881,1.6867,1.6906,1.6912,1.6943,1.6881,1.7007,1.7011,1.7015,1.7068,1.7078,1.7086,0,0,0,0,0,1.6838,1.6884,1.6871,1.6877,1.6902,1.6929,1.6932,1.6915,1.6889,1.6911,1.6905,1.6881,1.6937,1.6911,1.6917,1.6948,1.7005,1.701,1.7015,1.7064,1.7076,1.7086,0,0,0,0,0,0,1.6888,1.6884,1.6868,1.6917,1.6924,1.6921,1.6948,1.6928,1.6942,1.6937,1.6915,1.6915,1.6957,1.6957,1.6928,1.7003,1.6966,1.6973,1.7002,1.7013,1.7021,1.702,1.6883,0,0,0,0,0,1.6904,1.6928,1.6923,1.6966,1.697,1.6959,1.697,1.6957,1.6963,1.6965,1.6962,1.6969,1.6987,1.7,1.7017,1.7069,1.7068,1.7093,1.7102,1.711,1.7115,1.7141,1.7153,1.7034,1.7034,1.7034,0,0,1.6939,1.694,1.6956,1.6976,1.698,1.7004,1.6961,1.6988,1.7006,1.6969,1.7004,1.7003,1.7009,1.7054,1.7073,1.7054,1.7148,1.7116,1.7122,1.7123,1.7148,1.7159,1.7169,1.7038,1.7037,1.7036,0,0,1.7014,1.7018,1.7053,1.7058,1.7065,1.7057,1.7066,1.7066,1.7064,1.71,1.7072,1.7092,1.7126,1.713,1.7137,1.7215,1.7192,1.7221,1.7267,1.7293,1.7302,1.7311,1.7337,1.7347,1.7227,1.7227,1.7227,0,1.7056,1.7091,1.7074,1.7103,1.7112,1.7081,1.7117,1.7122,1.7134,1.7141,1.712,1.7161,1.7162,1.7208,1.7227,1.7234,1.7242,1.722,1.7303,1.7311,1.7318,1.7343,1.7353,1.723,1.723,1.723,1.7229,0,1.7142,1.7167,1.7195,1.7208,1.7221,1.7253,1.724,1.7255,1.7241,1.7235,1.7271,1.7272,1.7288,1.7298,1.7285,1.7342,1.733,1.7307,1.7269,1.7333,1.7356,1.7366,1.7235,1.7234,1.7233,1.7232,0,0,1.7247,1.7251,1.7261,1.7266,1.7272,1.729,1.7321,1.7338,1.7351,1.736,1.7385,1.7414,1.7392,1.74,1.7387,1.741,1.747,1.7383,1.7383,1.7398,1.7532,1.7549,1.7561,1.7456,1.7458,1.7459,1.7531,0,1.732,1.7373,1.7359,1.7412,1.7434,1.7405,1.7432,1.7438,1.7434,1.7452,1.7446,1.7467,1.7437,1.7442,1.7463,1.7458,1.7496,1.7453,1.7478,1.7479,1.7476,1.7573,1.7591,1.7659,1.754,1.7542,1.7543,0,1.7412,1.7425,1.7481,1.7482,1.7491,1.7515,1.7529,1.7547,1.7553,1.7548,1.7558,1.754,1.7569,1.7533,1.7573,1.7544,1.7553,1.7552,1.7554,1.7555,1.7514,1.7575,1.768,1.769,1.7557,1.7556,1.7555,0,1.7482,1.7514,1.7551,1.7557,1.756,1.7577,1.7579,1.7583,1.7594,1.7606,1.7613,1.7629,1.7637,1.7649,1.7636,1.761,1.7678,1.764,1.7673,1.7674,1.7688,1.7687,1.7795,1.7696,1.7696,1.7696,1.7696,0,1.7564,1.7598,1.7583,1.7605,1.7643,1.7626,1.7664,1.7662,1.7667,1.7688,1.7664,1.7685,1.7666,1.7685,1.7675,1.7709,1.7713,1.7709,1.7706,1.7711,1.7711,1.7715,1.771,1.7698,1.7698,1.7697,1.7697,0,1.7648,1.7639,1.7677,1.7677,1.7678,1.7706,1.7706,1.7726,1.772,1.7748,1.7753,1.7744,1.7765,1.7753,1.7774,1.7767,1.7812,1.7802,1.781,1.7807,1.7841,1.7837,1.7954,1.7968,1.7862,1.7863,1.7864,0,1.77,1.7726,1.7729,1.7742,1.7746,1.7767,1.7779,1.7763,1.7776,1.7785,1.7804,1.7823,1.7837,1.7872,1.7867,1.7883,1.7873,1.7913,1.7875,1.7879,1.7872,1.787,1.7872,1.792,1.7921,1.7922,1.7923,0,1.7794,1.7788,1.7805,1.7822,1.7836,1.7848,1.7857,1.7869,1.7854,1.7869,1.789,1.7902,1.7924,1.7942,1.7956,1.7957,1.7938,1.7935,1.7944,1.7948,1.7951,1.7949,1.7829,1.7932,1.7931,1.7931,1.793,1.793,1.7863,1.7884,1.789,1.791,1.7916,1.7926,1.7945,1.7942,1.796,1.7977,1.7967,1.7992,1.7997,1.8013,1.8017,1.8036,1.802,1.8032,1.8035,1.8038,1.8043,1.7949,1.8039,1.8038,1.8038,1.8038,1.8038,0,1.7954,1.7956,1.7975,1.799,1.8006,1.7987,1.7997,1.8011,1.8033,1.804,1.8055,1.8079,1.8098,1.8094,1.8111,1.8126,1.8118,1.8131,1.8129,1.813,1.8057,1.8047,1.8138,1.8138,1.8138,1.8138,1.8138,1.8138,1.8003,1.8039,1.8034,1.8072,1.8074,1.8099,1.8106,1.8114,1.812,1.8148,1.8164,1.8162,1.8164,1.8181,1.8196,1.8195,1.8202,1.8218,1.8213,1.8145,1.8135,1.8125,1.8116,1.822,1.822,1.8285,1.8285,1.8286]}]]